Year,Month,Day,Hour,Minute,Value (Times are PST for temperature in C)
2018,06,14,00,00,10.70
2018,06,14,00,01,10.70
2018,06,14,00,02,10.70
2018,06,14,00,03,10.70
2018,06,14,00,04,10.70
2018,06,14,00,05,10.70
2018,06,14,00,06,10.70
2018,06,14,00,07,10.70
2018,06,14,00,08,10.70
2018,06,14,00,09,10.70
2018,06,14,00,10,10.70
2018,06,14,00,11,10.70
2018,06,14,00,12,10.70
2018,06,14,00,13,10.70
2018,06,14,00,14,10.70
2018,06,14,00,15,10.70
2018,06,14,00,16,10.70
2018,06,14,00,17,10.60
2018,06,14,00,18,10.60
2018,06,14,00,19,10.60
2018,06,14,00,20,10.60
2018,06,14,00,21,10.60
2018,06,14,00,22,10.60
2018,06,14,00,23,10.60
2018,06,14,00,24,10.60
2018,06,14,00,25,10.50
2018,06,14,00,26,10.50
2018,06,14,00,27,10.50
2018,06,14,00,28,10.50
2018,06,14,00,29,10.50
2018,06,14,00,30,10.40
2018,06,14,00,31,10.40
2018,06,14,00,32,10.40
2018,06,14,00,33,10.40
2018,06,14,00,34,10.40
2018,06,14,00,35,10.40
2018,06,14,00,36,10.40
2018,06,14,00,37,10.40
2018,06,14,00,38,10.40
2018,06,14,00,39,10.40
2018,06,14,00,40,10.30
2018,06,14,00,41,10.30
2018,06,14,00,42,10.30
2018,06,14,00,43,10.30
2018,06,14,00,44,10.30
2018,06,14,00,45,10.30
2018,06,14,00,46,10.30
2018,06,14,00,47,10.30
2018,06,14,00,48,10.30
2018,06,14,00,49,10.30
2018,06,14,00,50,10.30
2018,06,14,00,51,10.30
2018,06,14,00,52,10.30
2018,06,14,00,53,10.30
2018,06,14,00,54,10.30
2018,06,14,00,55,10.30
2018,06,14,00,56,10.30
2018,06,14,00,57,10.30
2018,06,14,00,58,10.30
2018,06,14,00,59,10.30
2018,06,14,01,00,10.30
2018,06,14,01,01,10.30
2018,06,14,01,02,10.30
2018,06,14,01,03,10.30
2018,06,14,01,04,10.30
2018,06,14,01,05,10.30
2018,06,14,01,06,10.30
2018,06,14,01,07,10.30
2018,06,14,01,08,10.30
2018,06,14,01,09,10.30
2018,06,14,01,10,10.30
2018,06,14,01,11,10.20
2018,06,14,01,12,10.20
2018,06,14,01,13,10.30
2018,06,14,01,14,10.30
2018,06,14,01,15,10.30
2018,06,14,01,16,10.30
2018,06,14,01,17,10.30
2018,06,14,01,18,10.30
2018,06,14,01,19,10.30
2018,06,14,01,20,10.30
2018,06,14,01,21,10.30
2018,06,14,01,22,10.30
2018,06,14,01,23,10.20
2018,06,14,01,24,10.20
2018,06,14,01,25,10.20
2018,06,14,01,26,10.20
2018,06,14,01,27,10.20
2018,06,14,01,28,10.20
2018,06,14,01,29,10.20
2018,06,14,01,30,10.20
2018,06,14,01,31,10.20
2018,06,14,01,32,10.10
2018,06,14,01,33,10.10
2018,06,14,01,34,10.10
2018,06,14,01,35,10.00
2018,06,14,01,36,10.00
2018,06,14,01,37,10.00
2018,06,14,01,38,10.00
2018,06,14,01,39,9.90
2018,06,14,01,40,9.90
2018,06,14,01,41,9.90
2018,06,14,01,42,9.90
2018,06,14,01,43,9.90
2018,06,14,01,44,9.90
2018,06,14,01,45,9.90
2018,06,14,01,46,9.90
2018,06,14,01,47,9.90
2018,06,14,01,48,9.90
2018,06,14,01,49,9.80
2018,06,14,01,50,9.80
2018,06,14,01,51,9.80
2018,06,14,01,52,9.80
2018,06,14,01,53,9.80
2018,06,14,01,54,9.70
2018,06,14,01,55,9.70
2018,06,14,01,56,9.70
2018,06,14,01,57,9.70
2018,06,14,01,58,9.70
2018,06,14,01,59,9.70
2018,06,14,02,00,9.70
2018,06,14,02,01,9.70
2018,06,14,02,02,9.70
2018,06,14,02,03,9.70
2018,06,14,02,04,9.70
2018,06,14,02,05,9.70
2018,06,14,02,06,9.70
2018,06,14,02,07,9.70
2018,06,14,02,08,9.70
2018,06,14,02,09,9.70
2018,06,14,02,10,9.60
2018,06,14,02,11,9.60
2018,06,14,02,12,9.60
2018,06,14,02,13,9.60
2018,06,14,02,14,9.60
2018,06,14,02,15,9.60
2018,06,14,02,16,9.60
2018,06,14,02,17,9.60
2018,06,14,02,18,9.60
2018,06,14,02,19,9.60
2018,06,14,02,20,9.60
2018,06,14,02,21,9.60
2018,06,14,02,22,9.60
2018,06,14,02,23,9.60
2018,06,14,02,24,9.60
2018,06,14,02,25,9.60
2018,06,14,02,26,9.60
2018,06,14,02,27,9.60
2018,06,14,02,28,9.50
2018,06,14,02,29,9.50
2018,06,14,02,30,9.40
2018,06,14,02,31,9.30
2018,06,14,02,32,9.30
2018,06,14,02,33,9.30
2018,06,14,02,34,9.20
2018,06,14,02,35,9.20
2018,06,14,02,36,9.20
2018,06,14,02,37,9.20
2018,06,14,02,38,9.20
2018,06,14,02,39,9.20
2018,06,14,02,40,9.20
2018,06,14,02,41,9.20
2018,06,14,02,42,9.20
2018,06,14,02,43,9.20
2018,06,14,02,44,9.20
2018,06,14,02,45,9.20
2018,06,14,02,46,9.10
2018,06,14,02,47,9.10
2018,06,14,02,48,9.10
2018,06,14,02,49,9.00
2018,06,14,02,50,9.00
2018,06,14,02,51,9.00
2018,06,14,02,52,8.90
2018,06,14,02,53,8.90
2018,06,14,02,54,8.90
2018,06,14,02,55,8.90
2018,06,14,02,56,8.90
2018,06,14,02,57,8.90
2018,06,14,02,58,8.90
2018,06,14,02,59,8.90
2018,06,14,03,00,8.90
2018,06,14,03,01,8.80
2018,06,14,03,02,8.80
2018,06,14,03,03,8.80
2018,06,14,03,04,8.80
2018,06,14,03,05,8.80
2018,06,14,03,06,8.80
2018,06,14,03,07,8.80
2018,06,14,03,08,8.80
2018,06,14,03,09,8.70
2018,06,14,03,10,8.70
2018,06,14,03,11,8.70
2018,06,14,03,12,8.70
2018,06,14,03,13,8.70
2018,06,14,03,14,8.80
2018,06,14,03,15,8.80
2018,06,14,03,16,8.80
2018,06,14,03,17,8.80
2018,06,14,03,18,8.80
2018,06,14,03,19,8.80
2018,06,14,03,20,8.80
2018,06,14,03,21,8.80
2018,06,14,03,22,8.80
2018,06,14,03,23,8.80
2018,06,14,03,24,8.90
2018,06,14,03,25,8.90
2018,06,14,03,26,8.90
2018,06,14,03,27,8.90
2018,06,14,03,28,8.90
2018,06,14,03,29,8.90
2018,06,14,03,30,8.90
2018,06,14,03,31,8.90
2018,06,14,03,32,8.80
2018,06,14,03,33,8.80
2018,06,14,03,34,8.80
2018,06,14,03,35,8.80
2018,06,14,03,36,8.80
2018,06,14,03,37,8.80
2018,06,14,03,38,8.80
2018,06,14,03,39,8.80
2018,06,14,03,40,8.80
2018,06,14,03,41,8.80
2018,06,14,03,42,8.80
2018,06,14,03,43,8.80
2018,06,14,03,44,8.80
2018,06,14,03,45,8.80
2018,06,14,03,46,8.80
2018,06,14,03,47,8.80
2018,06,14,03,48,8.80
2018,06,14,03,49,8.80
2018,06,14,03,50,8.80
2018,06,14,03,51,8.80
2018,06,14,03,52,8.80
2018,06,14,03,53,8.80
2018,06,14,03,54,8.80
2018,06,14,03,55,8.80
2018,06,14,03,56,8.80
2018,06,14,03,57,8.80
2018,06,14,03,58,8.80
2018,06,14,03,59,8.80
2018,06,14,04,00,8.70
2018,06,14,04,01,8.70
2018,06,14,04,02,8.70
2018,06,14,04,03,8.70
2018,06,14,04,04,8.70
2018,06,14,04,08,8.70
2018,06,14,04,09,8.70
2018,06,14,04,10,8.70
2018,06,14,04,11,8.60
2018,06,14,04,12,8.60
2018,06,14,04,13,8.60
2018,06,14,04,14,8.60
2018,06,14,04,15,8.60
2018,06,14,04,16,8.50
2018,06,14,04,17,8.50
2018,06,14,04,18,8.50
2018,06,14,04,19,8.40
2018,06,14,04,20,8.40
2018,06,14,04,21,8.40
2018,06,14,04,22,8.40
2018,06,14,04,23,8.40
2018,06,14,04,24,8.30
2018,06,14,04,25,8.30
2018,06,14,04,26,8.30
2018,06,14,04,27,8.30
2018,06,14,04,28,8.30
2018,06,14,04,29,8.30
2018,06,14,04,30,8.30
2018,06,14,04,31,8.30
2018,06,14,04,32,8.30
2018,06,14,04,33,8.30
2018,06,14,04,34,8.30
2018,06,14,04,35,8.30
2018,06,14,04,36,8.30
2018,06,14,04,37,8.30
2018,06,14,04,38,8.30
2018,06,14,04,39,8.30
2018,06,14,04,40,8.40
2018,06,14,04,41,8.40
2018,06,14,04,42,8.40
2018,06,14,04,43,8.40
2018,06,14,04,44,8.40
2018,06,14,04,45,8.40
2018,06,14,04,46,8.40
2018,06,14,04,47,8.40
2018,06,14,04,48,8.40
2018,06,14,04,49,8.40
2018,06,14,04,50,8.40
2018,06,14,04,51,8.40
2018,06,14,04,52,8.40
2018,06,14,04,53,8.40
2018,06,14,04,54,8.40
2018,06,14,04,55,8.40
2018,06,14,04,56,8.40
2018,06,14,04,57,8.40
2018,06,14,04,58,8.40
2018,06,14,04,59,8.40
2018,06,14,05,00,8.40
2018,06,14,05,01,8.30
2018,06,14,05,02,8.30
2018,06,14,05,03,8.40
2018,06,14,05,04,8.40
2018,06,14,05,05,8.40
2018,06,14,05,06,8.30
2018,06,14,05,07,8.30
2018,06,14,05,08,8.30
2018,06,14,05,09,8.30
2018,06,14,05,10,8.30
2018,06,14,05,11,8.40
2018,06,14,05,12,8.40
2018,06,14,05,13,8.40
2018,06,14,05,14,8.40
2018,06,14,05,15,8.40
2018,06,14,05,16,8.40
2018,06,14,05,17,8.40
2018,06,14,05,18,8.40
2018,06,14,05,19,8.50
2018,06,14,05,20,8.50
2018,06,14,05,21,8.60
2018,06,14,05,22,8.60
2018,06,14,05,23,8.60
2018,06,14,05,24,8.60
2018,06,14,05,25,8.60
2018,06,14,05,26,8.70
2018,06,14,05,27,8.70
2018,06,14,05,28,8.70
2018,06,14,05,29,8.70
2018,06,14,05,30,8.70
2018,06,14,05,31,8.70
2018,06,14,05,32,8.70
2018,06,14,05,33,8.70
2018,06,14,05,34,8.70
2018,06,14,05,35,8.70
2018,06,14,05,36,8.70
2018,06,14,05,37,8.70
2018,06,14,05,38,8.70
2018,06,14,05,39,8.70
2018,06,14,05,40,8.70
2018,06,14,05,41,8.80
2018,06,14,05,42,8.80
2018,06,14,05,43,8.80
2018,06,14,05,44,8.80
2018,06,14,05,45,8.80
2018,06,14,05,46,8.80
2018,06,14,05,47,8.80
2018,06,14,05,48,8.80
2018,06,14,05,49,8.80
2018,06,14,05,50,8.90
2018,06,14,05,51,8.90
2018,06,14,05,52,8.90
2018,06,14,05,53,8.90
2018,06,14,05,54,8.90
2018,06,14,05,55,8.90
2018,06,14,05,56,8.90
2018,06,14,05,57,8.90
2018,06,14,05,58,8.90
2018,06,14,05,59,8.90
2018,06,14,06,00,8.90
2018,06,14,06,01,8.90
2018,06,14,06,02,8.90
2018,06,14,06,03,9.00
2018,06,14,06,04,9.00
2018,06,14,06,05,9.00
2018,06,14,06,06,9.00
2018,06,14,06,07,9.10
2018,06,14,06,08,9.10
2018,06,14,06,09,9.10
2018,06,14,06,10,9.10
2018,06,14,06,11,9.10
2018,06,14,06,12,9.10
2018,06,14,06,13,9.10
2018,06,14,06,14,9.20
2018,06,14,06,15,9.20
2018,06,14,06,16,9.20
2018,06,14,06,17,9.30
2018,06,14,06,18,9.30
2018,06,14,06,19,9.30
2018,06,14,06,20,9.30
2018,06,14,06,21,9.30
2018,06,14,06,22,9.40
2018,06,14,06,23,9.40
2018,06,14,06,24,9.40
2018,06,14,06,25,9.50
2018,06,14,06,26,9.50
2018,06,14,06,27,9.60
2018,06,14,06,28,9.60
2018,06,14,06,29,9.70
2018,06,14,06,30,9.70
2018,06,14,06,31,9.80
2018,06,14,06,32,9.80
2018,06,14,06,33,9.90
2018,06,14,06,34,9.90
2018,06,14,06,35,10.00
2018,06,14,06,36,10.00
2018,06,14,06,37,10.10
2018,06,14,06,38,10.10
2018,06,14,06,39,10.20
2018,06,14,06,40,10.30
2018,06,14,06,41,10.30
2018,06,14,06,42,10.30
2018,06,14,06,43,10.40
2018,06,14,06,44,10.50
2018,06,14,06,45,10.50
2018,06,14,06,46,10.60
2018,06,14,06,47,10.60
2018,06,14,06,48,10.70
2018,06,14,06,49,10.70
2018,06,14,06,50,10.80
2018,06,14,06,51,10.80
2018,06,14,06,52,10.90
2018,06,14,06,53,10.90
2018,06,14,06,54,11.00
2018,06,14,06,55,11.10
2018,06,14,06,56,11.10
2018,06,14,06,57,11.20
2018,06,14,06,58,11.20
2018,06,14,06,59,11.30
2018,06,14,07,00,11.40
2018,06,14,07,01,11.40
2018,06,14,07,02,11.50
2018,06,14,07,03,11.50
2018,06,14,07,04,11.60
2018,06,14,07,05,11.70
2018,06,14,07,06,11.70
2018,06,14,07,07,11.70
2018,06,14,07,08,11.80
2018,06,14,07,09,11.80
2018,06,14,07,10,11.80
2018,06,14,07,11,11.90
2018,06,14,07,12,11.90
2018,06,14,07,13,11.90
2018,06,14,07,14,12.00
2018,06,14,07,15,12.00
2018,06,14,07,16,12.10
2018,06,14,07,17,12.10
2018,06,14,07,18,12.20
2018,06,14,07,19,12.20
2018,06,14,07,20,12.20
2018,06,14,07,21,12.30
2018,06,14,07,22,12.30
2018,06,14,07,23,12.40
2018,06,14,07,24,12.40
2018,06,14,07,25,12.50
2018,06,14,07,26,12.60
2018,06,14,07,27,12.60
2018,06,14,07,28,12.70
2018,06,14,07,29,12.80
2018,06,14,07,30,12.80
2018,06,14,07,31,12.90
2018,06,14,07,32,13.00
2018,06,14,07,33,13.00
2018,06,14,07,34,13.10
2018,06,14,07,35,13.10
2018,06,14,07,36,13.20
2018,06,14,07,37,13.20
2018,06,14,07,38,13.30
2018,06,14,07,39,13.30
2018,06,14,07,40,13.30
2018,06,14,07,41,13.40
2018,06,14,07,42,13.50
2018,06,14,07,43,13.50
2018,06,14,07,44,13.60
2018,06,14,07,45,13.60
2018,06,14,07,46,13.70
2018,06,14,07,47,13.70
2018,06,14,07,48,13.70
2018,06,14,07,49,13.70
2018,06,14,07,50,13.70
2018,06,14,07,51,13.80
2018,06,14,07,52,13.80
2018,06,14,07,53,13.80
2018,06,14,07,54,13.80
2018,06,14,07,55,13.80
2018,06,14,07,56,13.90
2018,06,14,07,57,13.90
2018,06,14,07,58,14.00
2018,06,14,07,59,14.00
2018,06,14,08,00,14.10
2018,06,14,08,01,14.10
2018,06,14,08,02,14.20
2018,06,14,08,03,14.20
2018,06,14,08,04,14.30
2018,06,14,08,05,14.30
2018,06,14,08,06,14.40
2018,06,14,08,07,14.40
2018,06,14,08,08,14.40
2018,06,14,08,09,14.40
2018,06,14,08,10,14.50
2018,06,14,08,11,14.50
2018,06,14,08,12,14.60
2018,06,14,08,13,14.60
2018,06,14,08,14,14.70
2018,06,14,08,15,14.70
2018,06,14,08,16,14.70
2018,06,14,08,17,14.70
2018,06,14,08,18,14.80
2018,06,14,08,19,14.80
2018,06,14,08,20,14.80
2018,06,14,08,21,14.80
2018,06,14,08,22,14.80
2018,06,14,08,23,14.90
2018,06,14,08,24,14.90
2018,06,14,08,25,14.90
2018,06,14,08,26,14.90
2018,06,14,08,27,15.00
2018,06,14,08,28,15.00
2018,06,14,08,29,15.10
2018,06,14,08,30,15.20
2018,06,14,08,31,15.20
2018,06,14,08,32,15.30
2018,06,14,08,33,15.40
2018,06,14,08,34,15.50
2018,06,14,08,35,15.60
2018,06,14,08,36,15.70
2018,06,14,08,37,15.80
2018,06,14,08,38,15.80
2018,06,14,08,39,15.90
2018,06,14,08,40,15.90
2018,06,14,08,41,16.00
2018,06,14,08,42,16.10
2018,06,14,08,43,16.10
2018,06,14,08,44,16.10
2018,06,14,08,45,16.20
2018,06,14,08,46,16.20
2018,06,14,08,47,16.30
2018,06,14,08,48,16.30
2018,06,14,08,49,16.40
2018,06,14,08,50,16.50
2018,06,14,08,51,16.60
2018,06,14,08,52,16.60
2018,06,14,08,53,16.70
2018,06,14,08,54,16.70
2018,06,14,08,55,16.70
2018,06,14,08,56,16.80
2018,06,14,08,57,16.80
2018,06,14,08,58,16.80
2018,06,14,08,59,16.80
2018,06,14,09,00,16.90
2018,06,14,09,01,16.90
2018,06,14,09,02,16.90
2018,06,14,09,03,16.90
2018,06,14,09,04,16.90
2018,06,14,09,05,16.90
2018,06,14,09,06,16.90
2018,06,14,09,07,16.90
2018,06,14,09,08,16.80
2018,06,14,09,09,16.80
2018,06,14,09,10,16.80
2018,06,14,09,11,16.90
2018,06,14,09,12,16.90
2018,06,14,09,13,16.90
2018,06,14,09,14,17.00
2018,06,14,09,15,17.00
2018,06,14,09,16,17.00
2018,06,14,09,17,17.00
2018,06,14,09,18,17.00
2018,06,14,09,19,17.00
2018,06,14,09,20,17.00
2018,06,14,09,21,16.90
2018,06,14,09,22,16.70
2018,06,14,09,23,16.50
2018,06,14,09,24,16.20
2018,06,14,09,25,16.00
2018,06,14,09,26,15.80
2018,06,14,09,27,15.70
2018,06,14,09,28,15.60
2018,06,14,09,29,15.60
2018,06,14,09,30,15.60
2018,06,14,09,31,15.60
2018,06,14,09,32,15.50
2018,06,14,09,33,15.50
2018,06,14,09,34,15.50
2018,06,14,09,35,15.40
2018,06,14,09,36,15.40
2018,06,14,09,37,15.30
2018,06,14,09,38,15.20
2018,06,14,09,39,15.10
2018,06,14,09,40,15.10
2018,06,14,09,41,15.10
2018,06,14,09,42,15.10
2018,06,14,09,43,15.20
2018,06,14,09,44,15.20
2018,06,14,09,45,15.10
2018,06,14,09,46,15.10
2018,06,14,09,47,15.10
2018,06,14,09,48,15.00
2018,06,14,09,49,14.90
2018,06,14,09,50,14.80
2018,06,14,09,51,14.80
2018,06,14,09,52,14.80
2018,06,14,09,53,14.80
2018,06,14,09,54,14.80
2018,06,14,09,55,14.70
2018,06,14,09,56,14.70
2018,06,14,09,57,14.70
2018,06,14,09,58,14.60
2018,06,14,09,59,14.60
2018,06,14,10,00,14.60
2018,06,14,10,01,14.60
2018,06,14,10,02,14.60
2018,06,14,10,03,14.60
2018,06,14,10,04,14.60
2018,06,14,10,05,14.60
2018,06,14,10,06,14.60
2018,06,14,10,07,14.70
2018,06,14,10,08,14.70
2018,06,14,10,09,14.70
2018,06,14,10,10,14.70
2018,06,14,10,11,14.70
2018,06,14,10,12,14.70
2018,06,14,10,13,14.70
2018,06,14,10,14,14.70
2018,06,14,10,15,14.70
2018,06,14,10,16,14.70
2018,06,14,10,17,14.70
2018,06,14,10,18,14.80
2018,06,14,10,19,14.80
2018,06,14,10,20,14.80
2018,06,14,10,21,14.80
2018,06,14,10,22,14.80
2018,06,14,10,23,14.80
2018,06,14,10,24,14.80
2018,06,14,10,25,14.80
2018,06,14,10,26,14.80
2018,06,14,10,27,14.80
2018,06,14,10,28,14.90
2018,06,14,10,29,14.90
2018,06,14,10,30,14.90
2018,06,14,10,31,14.90
2018,06,14,10,32,14.90
2018,06,14,10,33,14.90
2018,06,14,10,34,14.90
2018,06,14,10,35,14.90
2018,06,14,10,36,14.90
2018,06,14,10,37,15.00
2018,06,14,10,38,15.00
2018,06,14,10,39,15.00
2018,06,14,10,40,15.10
2018,06,14,10,41,15.10
2018,06,14,10,42,15.10
2018,06,14,10,43,15.10
2018,06,14,10,44,15.10
2018,06,14,10,45,15.20
2018,06,14,10,46,15.20
2018,06,14,10,47,15.20
2018,06,14,10,48,15.20
2018,06,14,10,49,15.20
2018,06,14,10,50,15.20
2018,06,14,10,51,15.20
2018,06,14,10,52,15.30
2018,06,14,10,53,15.40
2018,06,14,10,54,15.40
2018,06,14,10,55,15.50
2018,06,14,10,56,15.60
2018,06,14,10,57,15.60
2018,06,14,10,58,15.60
2018,06,14,10,59,15.70
2018,06,14,11,00,15.70
2018,06,14,11,01,15.70
2018,06,14,11,02,15.70
2018,06,14,11,03,15.70
2018,06,14,11,04,15.70
2018,06,14,11,05,15.70
2018,06,14,11,06,15.70
2018,06,14,11,07,15.70
2018,06,14,11,08,15.70
2018,06,14,11,09,15.70
2018,06,14,11,10,15.70
2018,06,14,11,11,15.70
2018,06,14,11,12,15.70
2018,06,14,11,13,15.80
2018,06,14,11,14,15.80
2018,06,14,11,15,15.80
2018,06,14,11,16,15.70
2018,06,14,11,17,15.70
2018,06,14,11,18,15.70
2018,06,14,11,19,15.70
2018,06,14,11,20,15.70
2018,06,14,11,21,15.80
2018,06,14,11,22,15.80
2018,06,14,11,23,15.80
2018,06,14,11,24,15.80
2018,06,14,11,25,15.80
2018,06,14,11,26,15.80
2018,06,14,11,27,15.80
2018,06,14,11,28,15.90
2018,06,14,11,29,15.90
2018,06,14,11,30,16.00
2018,06,14,11,31,16.10
2018,06,14,11,32,16.10
2018,06,14,11,33,16.20
2018,06,14,11,34,16.10
2018,06,14,11,35,16.10
2018,06,14,11,36,16.10
2018,06,14,11,37,16.10
2018,06,14,11,38,16.00
2018,06,14,11,39,16.00
2018,06,14,11,40,16.00
2018,06,14,11,41,16.00
2018,06,14,11,42,15.90
2018,06,14,11,43,15.80
2018,06,14,11,44,15.70
2018,06,14,11,45,15.70
2018,06,14,11,46,15.60
2018,06,14,11,47,15.50
2018,06,14,11,48,15.50
2018,06,14,11,49,15.40
2018,06,14,11,50,15.30
2018,06,14,11,51,15.30
2018,06,14,11,52,15.20
2018,06,14,11,53,15.20
2018,06,14,11,54,15.20
2018,06,14,11,55,15.20
2018,06,14,11,56,15.20
2018,06,14,11,57,15.20
2018,06,14,11,58,15.20
2018,06,14,11,59,15.20
2018,06,14,12,00,15.20
2018,06,14,12,01,15.20
2018,06,14,12,02,15.20
2018,06,14,12,03,15.10
2018,06,14,12,04,15.10
2018,06,14,12,05,15.00
2018,06,14,12,06,15.00
2018,06,14,12,07,15.00
2018,06,14,12,08,14.90
2018,06,14,12,09,14.90
2018,06,14,12,10,14.90
2018,06,14,12,11,14.90
2018,06,14,12,12,14.80
2018,06,14,12,13,14.80
2018,06,14,12,14,14.80
2018,06,14,12,15,14.80
2018,06,14,12,16,14.80
2018,06,14,12,17,14.80
2018,06,14,12,18,14.80
2018,06,14,12,19,14.80
2018,06,14,12,20,14.80
2018,06,14,12,21,14.80
2018,06,14,12,22,14.90
2018,06,14,12,23,14.90
2018,06,14,12,24,14.90
2018,06,14,12,25,14.90
2018,06,14,12,26,14.90
2018,06,14,12,27,14.90
2018,06,14,12,28,14.90
2018,06,14,12,29,14.90
2018,06,14,12,30,14.90
2018,06,14,12,31,14.90
2018,06,14,12,32,14.90
2018,06,14,12,33,14.80
2018,06,14,12,34,14.80
2018,06,14,12,35,14.80
2018,06,14,12,36,14.80
2018,06,14,12,37,14.80
2018,06,14,12,38,14.80
2018,06,14,12,39,14.80
2018,06,14,12,40,14.80
2018,06,14,12,41,14.70
2018,06,14,12,42,14.70
2018,06,14,12,43,14.80
2018,06,14,12,44,14.80
2018,06,14,12,45,14.80
2018,06,14,12,46,14.80
2018,06,14,12,47,14.90
2018,06,14,12,48,14.90
2018,06,14,12,49,14.90
2018,06,14,12,50,14.90
2018,06,14,12,51,14.90
2018,06,14,12,52,14.90
2018,06,14,12,53,14.90
2018,06,14,12,54,14.90
2018,06,14,12,55,14.90
2018,06,14,12,56,14.90
2018,06,14,12,57,14.90
2018,06,14,12,58,14.90
2018,06,14,12,59,14.90
2018,06,14,13,00,14.90
2018,06,14,13,01,15.00
2018,06,14,13,02,14.90
2018,06,14,13,03,14.90
2018,06,14,13,04,14.90
2018,06,14,13,05,14.80
2018,06,14,13,06,14.80
2018,06,14,13,07,14.70
2018,06,14,13,08,14.70
2018,06,14,13,09,14.70
2018,06,14,13,10,14.70
2018,06,14,13,11,14.70
2018,06,14,13,12,14.60
2018,06,14,13,13,14.70
2018,06,14,13,14,14.70
2018,06,14,13,15,14.70
2018,06,14,13,16,14.70
2018,06,14,13,17,14.70
2018,06,14,13,18,14.70
2018,06,14,13,19,14.70
2018,06,14,13,20,14.80
2018,06,14,13,21,14.80
2018,06,14,13,22,14.90
2018,06,14,13,23,15.00
2018,06,14,13,24,15.00
2018,06,14,13,25,15.10
2018,06,14,13,26,15.20
2018,06,14,13,27,15.20
2018,06,14,13,28,15.20
2018,06,14,13,29,15.30
2018,06,14,13,30,15.30
2018,06,14,13,31,15.40
2018,06,14,13,32,15.50
2018,06,14,13,33,15.50
2018,06,14,13,34,15.60
2018,06,14,13,35,15.70
2018,06,14,13,36,15.80
2018,06,14,13,37,15.80
2018,06,14,13,38,15.90
2018,06,14,13,39,15.90
2018,06,14,13,40,16.00
2018,06,14,13,41,16.00
2018,06,14,13,42,16.10
2018,06,14,13,43,16.10
2018,06,14,13,44,16.20
2018,06,14,13,45,16.30
2018,06,14,13,46,16.40
2018,06,14,13,47,16.50
2018,06,14,13,48,16.60
2018,06,14,13,49,16.70
2018,06,14,13,50,16.90
2018,06,14,13,51,17.00
2018,06,14,13,52,17.10
2018,06,14,13,53,17.20
2018,06,14,13,54,17.30
2018,06,14,13,55,17.40
2018,06,14,13,56,17.50
2018,06,14,13,57,17.60
2018,06,14,13,58,17.60
2018,06,14,13,59,17.70
2018,06,14,14,00,17.70
2018,06,14,14,01,17.70
2018,06,14,14,02,17.70
2018,06,14,14,03,17.70
2018,06,14,14,04,17.60
2018,06,14,14,05,17.40
2018,06,14,14,06,17.30
2018,06,14,14,07,17.30
2018,06,14,14,08,17.30
2018,06,14,14,09,17.20
2018,06,14,14,10,17.10
2018,06,14,14,11,17.00
2018,06,14,14,12,17.00
2018,06,14,14,13,16.90
2018,06,14,14,14,16.90
2018,06,14,14,15,16.90
2018,06,14,14,16,16.80
2018,06,14,14,17,16.80
2018,06,14,14,18,16.70
2018,06,14,14,19,16.70
2018,06,14,14,20,16.70
2018,06,14,14,21,16.70
2018,06,14,14,22,16.60
2018,06,14,14,23,16.60
2018,06,14,14,24,16.60
2018,06,14,14,25,16.60
2018,06,14,14,26,16.60
2018,06,14,14,27,16.60
2018,06,14,14,28,16.60
2018,06,14,14,29,16.70
2018,06,14,14,30,16.70
2018,06,14,14,31,16.70
2018,06,14,14,32,16.70
2018,06,14,14,33,16.60
2018,06,14,14,34,16.60
2018,06,14,14,35,16.50
2018,06,14,14,36,16.40
2018,06,14,14,37,16.40
2018,06,14,14,38,16.40
2018,06,14,14,39,16.30
2018,06,14,14,40,16.20
2018,06,14,14,41,16.20
2018,06,14,14,42,16.10
2018,06,14,14,43,16.00
2018,06,14,14,44,16.00
2018,06,14,14,45,15.90
2018,06,14,14,46,15.80
2018,06,14,14,47,15.70
2018,06,14,14,48,15.60
2018,06,14,14,49,15.50
2018,06,14,14,50,15.40
2018,06,14,14,51,15.40
2018,06,14,14,52,15.40
2018,06,14,14,53,15.30
2018,06,14,14,54,15.30
2018,06,14,14,55,15.30
2018,06,14,14,56,15.30
2018,06,14,14,57,15.40
2018,06,14,14,58,15.40
2018,06,14,14,59,15.30
2018,06,14,15,00,15.30
2018,06,14,15,01,15.30
2018,06,14,15,02,15.30
2018,06,14,15,03,15.20
2018,06,14,15,04,15.20
2018,06,14,15,05,15.20
2018,06,14,15,06,15.20
2018,06,14,15,07,15.30
2018,06,14,15,08,15.30
2018,06,14,15,09,15.30
2018,06,14,15,10,15.30
2018,06,14,15,11,15.30
2018,06,14,15,12,15.40
2018,06,14,15,13,15.40
2018,06,14,15,14,15.40
2018,06,14,15,15,15.50
2018,06,14,15,16,15.50
2018,06,14,15,17,15.50
2018,06,14,15,18,15.60
2018,06,14,15,19,15.60
2018,06,14,15,20,15.70
2018,06,14,15,21,15.70
2018,06,14,15,22,15.80
2018,06,14,15,23,15.90
2018,06,14,15,24,16.00
2018,06,14,15,25,16.00
2018,06,14,15,26,16.10
2018,06,14,15,27,16.20
2018,06,14,15,28,16.30
2018,06,14,15,29,16.30
2018,06,14,15,30,16.40
2018,06,14,15,31,16.40
2018,06,14,15,32,16.50
2018,06,14,15,33,16.50
2018,06,14,15,34,16.50
2018,06,14,15,35,16.60
2018,06,14,15,36,16.70
2018,06,14,15,37,16.80
2018,06,14,15,38,16.80
2018,06,14,15,39,16.90
2018,06,14,15,40,16.90
2018,06,14,15,41,16.90
2018,06,14,15,42,17.00
2018,06,14,15,43,17.00
2018,06,14,15,44,17.00
2018,06,14,15,45,17.10
2018,06,14,15,46,17.10
2018,06,14,15,47,17.20
2018,06,14,15,48,17.20
2018,06,14,15,49,17.30
2018,06,14,15,50,17.40
2018,06,14,15,51,17.50
2018,06,14,15,52,17.60
2018,06,14,15,53,17.70
2018,06,14,15,54,17.80
2018,06,14,15,55,17.80
2018,06,14,15,56,17.80
2018,06,14,15,57,17.80
2018,06,14,15,58,17.80
2018,06,14,15,59,17.90
2018,06,14,16,00,17.90
2018,06,14,16,01,17.80
2018,06,14,16,02,17.80
2018,06,14,16,03,17.80
2018,06,14,16,04,17.80
2018,06,14,16,05,17.80
2018,06,14,16,06,17.80
2018,06,14,16,07,17.90
2018,06,14,16,08,17.90
2018,06,14,16,09,17.80
2018,06,14,16,10,17.80
2018,06,14,16,11,17.80
2018,06,14,16,12,17.70
2018,06,14,16,13,17.60
2018,06,14,16,14,17.60
2018,06,14,16,15,17.60
2018,06,14,16,16,17.60
2018,06,14,16,17,17.50
2018,06,14,16,18,17.50
2018,06,14,16,19,17.40
2018,06,14,16,20,17.40
2018,06,14,16,21,17.30
2018,06,14,16,22,17.30
2018,06,14,16,23,17.20
2018,06,14,16,24,17.10
2018,06,14,16,25,17.10
2018,06,14,16,26,17.00
2018,06,14,16,27,17.00
2018,06,14,16,28,17.00
2018,06,14,16,29,17.00
2018,06,14,16,30,17.00
2018,06,14,16,31,17.00
2018,06,14,16,32,17.10
2018,06,14,16,33,17.10
2018,06,14,16,34,17.10
2018,06,14,16,35,17.10
2018,06,14,16,36,17.10
2018,06,14,16,37,17.10
2018,06,14,16,38,17.10
2018,06,14,16,39,17.10
2018,06,14,16,40,17.00
2018,06,14,16,41,17.00
2018,06,14,16,42,17.00
2018,06,14,16,43,17.00
2018,06,14,16,44,16.90
2018,06,14,16,45,16.90
2018,06,14,16,46,16.90
2018,06,14,16,47,16.90
2018,06,14,16,48,16.90
2018,06,14,16,49,16.90
2018,06,14,16,50,16.90
2018,06,14,16,51,16.90
2018,06,14,16,52,16.90
2018,06,14,16,53,16.90
2018,06,14,16,54,16.90
2018,06,14,16,55,16.90
2018,06,14,16,56,16.90
2018,06,14,16,57,16.90
2018,06,14,16,58,16.90
2018,06,14,16,59,16.90
2018,06,14,17,00,16.90
2018,06,14,17,01,16.90
2018,06,14,17,02,17.00
2018,06,14,17,03,17.00
2018,06,14,17,04,17.00
2018,06,14,17,05,17.10
2018,06,14,17,06,17.10
2018,06,14,17,07,17.10
2018,06,14,17,08,17.10
2018,06,14,17,09,17.20
2018,06,14,17,10,17.20
2018,06,14,17,11,17.20
2018,06,14,17,12,17.20
2018,06,14,17,13,17.10
2018,06,14,17,14,17.10
2018,06,14,17,15,17.10
2018,06,14,17,16,17.10
2018,06,14,17,17,17.00
2018,06,14,17,18,17.00
2018,06,14,17,19,16.90
2018,06,14,17,20,16.90
2018,06,14,17,21,16.90
2018,06,14,17,22,16.90
2018,06,14,17,23,16.90
2018,06,14,17,24,16.80
2018,06,14,17,25,16.80
2018,06,14,17,26,16.80
2018,06,14,17,27,16.80
2018,06,14,17,28,16.80
2018,06,14,17,29,16.80
2018,06,14,17,30,16.80
2018,06,14,17,31,16.70
2018,06,14,17,32,16.70
2018,06,14,17,33,16.70
2018,06,14,17,34,16.70
2018,06,14,17,35,16.70